Regional Weather Roundup
Issued by NWS

Home | Current Version | Previous Version | Text Only | Print | Product List | Glossary On
Versions: 1 2 3 4 5 6 7 8 9 10 11 12 13 14 15 16 17 18 19 20 21 22 23 24 25 26 27 28 29 30 31 32 33 34 35 36 37 38 39 40 41 42 43 44 45 46 47 48 49 50
000
ASUS43 KFSD 241802
RWRSD

WEATHER ROUNDUP FOR SOUTH DAKOTA
NATIONAL WEATHER SERVICE SIOUX FALLS SD
1200 PM CST TUE JAN 24 2017

NOTE: "FAIR" INDICATES FEW OR NO CLOUDS BELOW 12,000 FEET WITH NO
SIGNIFICANT WEATHER AND/OR OBSTRUCTIONS TO VISIBILITY.


SDZ001>005-009-010-012>017-241900-
NORTHWEST AND NORTH CENTRAL SOUTH DAKOTA

CITY           SKY/WX    TMP DP  RH WIND       PRES   REMARKS
BUFFALO          N/A     22  19  89 N12       29.78S WCI  10
FAITH            N/A     22  19  89 N17       29.83R WCI   8
MOBRIDGE       LGT SNOW  25  18  74 N15       29.82F WCI  13
$$

SDZ012>016-024>037-041>051-057-063-072>074-241900-
SOUTHWEST AND SOUTH CENTRAL SOUTH DAKOTA

CITY           SKY/WX    TMP DP  RH WIND       PRES   REMARKS
RAPID CTY ARPT LGT SNOW  21  18  88 NW18      29.78S VSB 3/4 WCI   6
PIERRE         SNOW      27  26  96 NE15      29.77F VSB 1/2 WCI  15
CUSTER         LGT SNOW  16  11  80 NW3       29.64S VSB 1
PINE RIDGE     SNOW      22  20  92 NW9       29.72S VSB 1/2 WCI  12
SPEARFISH      LGT SNOW  19  18  93 NW5       29.80S VSB 3/4 WCI  13
WINNER         SNOW      31  29  92 NE9       29.72S VSB 1/4 WCI  23
$$

SDZ004>011-016>023-039-040-241900-
NORTHEAST SOUTH DAKOTA

CITY           SKY/WX    TMP DP  RH WIND       PRES   REMARKS
ABERDEEN       LGT SNOW  28  24  85 NE13      29.85F FOG     WCI  17
WATERTOWN      CLOUDY    28  26  92 E13       29.79F WCI  17
BROOKINGS      CLOUDY    29  27  92 E16       29.78F WCI  17
SISSETON         N/A     32  29  88 NE7       29.84F WCI  26
$$

SDZ017-020-022-023-036>040-048>070-241900-
SOUTHEAST SOUTH DAKOTA

CITY           SKY/WX    TMP DP  RH WIND       PRES   REMARKS
SIOUX FALLS    CLOUDY    31  30  96 E16       29.77S WCI  20
HURON          CLOUDY    31  29  92 E13       29.79S WCI  21
CHAMBERLAIN    LGT SNOW  33  32  98 E7        29.75R WCI  26
MITCHELL       CLOUDY    33  31  92 E15       29.77S WCI  23
YANKTON        CLOUDY    30  27  86 E13       29.72F WCI  20
$$

ABBREVIATIONS USED IN REMARKS
   TC - TEMPERATURE IN CELSIUS
  WCI - WIND CHILL INDEX
   HX - HEAT INDEX
  VSB - VISIBILITY




USA.gov is the U.S. government's official web portal to all federal, state and local government web resources and services.